This is the latest recevied weather packets stored in our database for station/object KC5DAQ-27. If no packets are shown the sender has not sent any weather packets the latest 10 day(s).
| Time | Temp. | Humidity | Pressure | Rain* | Wind** | Luminosity | Snow |
|---|---|---|---|---|---|---|---|
| 1778199184 | 23.89° C | 72% | 1005.1 hPa | 0 mm | - | 51 W/m² | - |
| 1778199123 | 23.89° C | 72% | 1005.1 hPa | 0 mm | - | 53 W/m² | - |
| 1778199062 | 23.89° C | 72% | 1005 hPa | 0 mm | - | 55 W/m² | - |
| 1778199002 | 23.89° C | 72% | 1005.1 hPa | 0 mm | - | 55 W/m² | - |
| 1778198945 | 23.89° C | 72% | 1005 hPa | 0 mm | - | 56 W/m² | - |
| 1778198883 | 23.89° C | 72% | 1005 hPa | 0 mm | - | 56 W/m² | - |
| 1778198823 | 23.89° C | 72% | 1005.1 hPa | 0 mm | - | 56 W/m² | - |
| 1778198763 | 23.89° C | 72% | 1005.1 hPa | 0 mm | - | 58 W/m² | - |
| 1778198704 | 23.89° C | 72% | 1005.2 hPa | 0 mm | - | 62 W/m² | - |
| 1778198642 | 23.89° C | 71% | 1005.3 hPa | 0 mm | - | 65 W/m² | - |
| 1778198582 | 23.89° C | 71% | 1005.3 hPa | 0 mm | - | 67 W/m² | - |
| 1778198524 | 23.89° C | 71% | 1005.2 hPa | 0 mm | - | 69 W/m² | - |
| 1778198463 | 23.89° C | 71% | 1005.2 hPa | 0 mm | - | 70 W/m² | - |
| 1778198404 | 23.89° C | 71% | 1005.1 hPa | 0 mm | - | 72 W/m² | - |
| 1778198344 | 23.89° C | 71% | 1005.1 hPa | 0 mm | - | 72 W/m² | - |
| 1778198282 | 23.89° C | 71% | 1005.2 hPa | 0 mm | - | 77 W/m² | - |
| 1778198222 | 23.89° C | 71% | 1005.2 hPa | 0 mm | - | 79 W/m² | - |
| 1778198162 | 23.89° C | 71% | 1005.2 hPa | 0 mm | - | 84 W/m² | - |
| 1778198104 | 23.89° C | 71% | 1005.3 hPa | 0 mm | - | 88 W/m² | - |
| 1778198043 | 23.89° C | 71% | 1005.2 hPa | 0 mm | - | 93 W/m² | - |
| 1778197982 | 23.89° C | 71% | 1005.2 hPa | 0 mm | - | 95 W/m² | - |
| 1778197923 | 23.89° C | 71% | 1005.2 hPa | 0 mm | - | 98 W/m² | - |
| 1778197862 | 23.89° C | 71% | 1005.3 hPa | 0 mm | - | 100 W/m² | - |
| 1778197803 | 24.44° C | 71% | 1005.3 hPa | 0 mm | - | 102 W/m² | - |
| 1778197742 | 24.44° C | 71% | 1005.1 hPa | 0 mm | - | 102 W/m² | - |
* Rain latest hour (hover to see other rain measurements)
** Current wind speed in m/s (hover to see current wind gust speed)